,,,PA_Meas_PMT16A,,PR_Meas_QMR101_102,,RH_Meas_QMH101,,SR_Meas_QMS101,,TA_Meas_QMH101,,GenWind,,GenWind,
date,time,status,PA,status,PR,status,RH,status,SR,status,TA,status,DirAvg,status,SpdAvg,
2011-10-13, 00:00:05,VALID,1010.94,VALID,0.0,VALID,104.0,VALID,0.0,VALID,24.24,VALID,78.0,VALID,0.0,
2011-10-13, 00:01:05,VALID,1010.957,VALID,0.0,VALID,104.0,VALID,0.0,VALID,24.22,VALID,78.0,VALID,0.0,
2011-10-13, 00:02:05,VALID,1010.941,VALID,0.0,VALID,104.0,VALID,0.0,VALID,24.22,VALID,78.0,VALID,0.0,
2011-10-13, 00:03:05,VALID,1010.941,VALID,0.0,VALID,104.0,VALID,0.0,VALID,24.201,VALID,78.0,VALID,0.0,
2011-10-13, 00:04:05,VALID,1010.922,VALID,0.0,VALID,104.0,VALID,0.0,VALID,24.201,VALID,78.0,VALID,0.22,
2011-10-13, 00:05:05,VALID,1010.93,VALID,0.0,VALID,104.0,VALID,0.0,VALID,24.201,VALID,78.0,VALID,0.315,
2011-10-13, 00:06:05,VALID,1010.956,VALID,0.0,VALID,104.0,VALID,0.0,VALID,24.181,VALID,78.0,VALID,0.27,
2011-10-13, 00:07:05,VALID,1010.929,VALID,0.0,VALID,104.0,VALID,0.0,VALID,24.162,VALID,78.0,VALID,0.107,
2011-10-13, 00:08:05,VALID,1010.933,VALID,0.0,VALID,104.0,VALID,0.0,VALID,24.103,VALID,78.0,VALID,0.0,
2011-10-13, 00:09:05,VALID,1010.937,VALID,0.0,VALID,104.0,VALID,0.0,VALID,24.103,VALID,78.0,VALID,0.0,
2011-10-13, 00:10:05,VALID,1010.937,VALID,0.0,VALID,104.0,VALID,0.0,VALID,24.105,VALID,78.0,VALID,0.0,
2011-10-13, 00:11:05,VALID,1010.898,VALID,0.0,VALID,104.0,VALID,0.0,VALID,24.084,VALID,78.0,VALID,0.0,
2011-10-13, 00:12:05,VALID,1010.905,VALID,0.0,VALID,104.0,VALID,0.0,VALID,24.064,VALID,78.0,VALID,0.0,
2011-10-13, 00:13:05,VALID,1010.928,VALID,0.0,VALID,104.0,VALID,0.0,VALID,24.064,VALID,78.0,VALID,0.0,
2011-10-13, 00:14:05,VALID,1010.926,VALID,0.0,VALID,104.0,VALID,0.0,VALID,24.064,VALID,78.0,VALID,0.0,
2011-10-13, 00:15:05,VALID,1010.895,VALID,0.0,VALID,104.0,VALID,0.0,VALID,24.045,VALID,78.0,VALID,0.0,
2011-10-13, 00:16:05,VALID,1010.889,VALID,0.0,VALID,104.0,VALID,0.0,VALID,24.025,VALID,78.0,VALID,0.0,
2011-10-13, 00:17:05,VALID,1010.897,VALID,0.0,VALID,104.0,VALID,0.0,VALID,24.025,VALID,78.0,VALID,0.0,
2011-10-13, 00:18:05,VALID,1010.883,VALID,0.0,VALID,104.0,VALID,0.0,VALID,24.025,VALID,78.0,VALID,0.0,
2011-10-13, 00:19:05,VALID,1010.886,VALID,0.0,VALID,104.0,VALID,0.0,VALID,24.027,VALID,78.0,VALID,0.0,
2011-10-13, 00:20:05,VALID,1010.865,VALID,0.0,VALID,104.0,VALID,0.0,VALID,23.986,VALID,78.0,VALID,0.0,
2011-10-13, 00:21:05,VALID,1010.858,VALID,0.0,VALID,104.0,VALID,0.0,VALID,24.006,VALID,78.0,VALID,0.0,
2011-10-13, 00:22:05,VALID,1010.882,VALID,0.0,VALID,104.0,VALID,0.0,VALID,24.025,VALID,78.0,VALID,0.0,
2011-10-13, 00:23:05,VALID,1010.866,VALID,0.0,VALID,104.0,VALID,0.0,VALID,24.045,VALID,78.0,VALID,0.0,
2011-10-13, 00:24:05,VALID,1010.865,VALID,0.0,VALID,104.0,VALID,0.0,VALID,24.084,VALID,78.0,VALID,0.0,
2011-10-13, 00:25:05,VALID,1010.855,VALID,0.0,VALID,104.0,VALID,0.0,VALID,24.103,VALID,78.0,VALID,0.0,
2011-10-13, 00:26:05,VALID,1010.842,VALID,0.0,VALID,104.0,VALID,0.0,VALID,24.084,VALID,78.0,VALID,0.0,
2011-10-13, 00:27:05,VALID,1010.837,VALID,0.0,VALID,104.0,VALID,0.0,VALID,24.084,VALID,78.0,VALID,0.0,
2011-10-13, 00:28:05,VALID,1010.8,VALID,0.0,VALID,104.0,VALID,0.0,VALID,24.084,VALID,78.0,VALID,0.0,
2011-10-13, 00:29:05,VALID,1010.797,VALID,0.0,VALID,104.0,VALID,0.0,VALID,24.084,VALID,78.0,VALID,0.0,
2011-10-13, 00:30:05,VALID,1010.801,VALID,0.0,VALID,104.0,VALID,0.0,VALID,24.084,VALID,78.0,VALID,0.0,
2011-10-13, 00:31:05,VALID,1010.802,VALID,0.0,VALID,104.0,VALID,0.0,VALID,24.103,VALID,78.0,VALID,0.0,
2011-10-13, 00:32:05,VALID,1010.805,VALID,0.0,VALID,104.0,VALID,0.0,VALID,24.125,VALID,78.0,VALID,0.0,
2011-10-13, 00:33:05,VALID,1010.829,VALID,0.0,VALID,104.0,VALID,0.0,VALID,24.084,VALID,78.0,VALID,0.237,
2011-10-13, 00:34:05,VALID,1010.824,VALID,0.0,VALID,104.0,VALID,0.0,VALID,24.064,VALID,78.0,VALID,0.415,
2011-10-13, 00:35:05,VALID,1010.815,VALID,0.0,VALID,104.0,VALID,0.0,VALID,24.064,VALID,78.0,VALID,0.455,
2011-10-13, 00:36:04,VALID,1010.792,VALID,0.0,VALID,104.0,VALID,0.112,VALID,24.082,VALID,78.0,VALID,0.474,
2011-10-13, 00:37:04,VALID,1010.783,VALID,0.0,VALID,104.0,VALID,0.112,VALID,24.101,VALID,78.0,VALID,0.377,
2011-10-13, 00:38:04,VALID,1010.755,VALID,0.0,VALID,104.0,VALID,0.112,VALID,24.121,VALID,77.0,VALID,0.402,
2011-10-13, 00:39:04,VALID,1010.734,VALID,0.0,VALID,104.0,VALID,0.112,VALID,24.101,VALID,64.0,VALID,0.491,
2011-10-13, 00:40:04,VALID,1010.705,VALID,0.0,VALID,104.0,VALID,0.112,VALID,24.101,VALID,64.0,VALID,0.287,
2011-10-13, 00:41:04,VALID,1010.703,VALID,0.0,VALID,104.0,VALID,0.112,VALID,24.101,VALID,64.0,VALID,0.027,
2011-10-13, 00:42:04,VALID,1010.699,VALID,0.0,VALID,104.0,VALID,0.112,VALID,24.101,VALID,64.0,VALID,0.0,
2011-10-13, 00:43:04,VALID,1010.707,VALID,0.0,VALID,104.0,VALID,0.112,VALID,24.101,VALID,64.0,VALID,0.199,
2011-10-13, 00:44:04,VALID,1010.738,VALID,0.0,VALID,104.0,VALID,0.0,VALID,24.101,VALID,64.0,VALID,0.233,
2011-10-13, 00:45:04,VALID,1010.744,VALID,0.0,VALID,104.0,VALID,0.112,VALID,24.101,VALID,64.0,VALID,0.134,
2011-10-13, 00:46:04,VALID,1010.732,VALID,0.0,VALID,104.0,VALID,0.112,VALID,24.082,VALID,64.0,VALID,0.0,
2011-10-13, 00:47:04,VALID,1010.731,VALID,0.0,VALID,104.0,VALID,0.112,VALID,24.082,VALID,64.0,VALID,0.002,
2011-10-13, 00:48:04,VALID,1010.747,VALID,0.0,VALID,104.0,VALID,0.112,VALID,24.082,VALID,64.0,VALID,0.234,
2011-10-13, 00:49:04,VALID,1010.724,VALID,0.0,VALID,104.0,VALID,0.0,VALID,24.082,VALID,64.0,VALID,0.179,
2011-10-13, 00:50:04,VALID,1010.724,VALID,0.0,VALID,104.0,VALID,0.112,VALID,24.082,VALID,64.0,VALID,0.223,
2011-10-13, 00:51:04,VALID,1010.701,VALID,0.0,VALID,104.0,VALID,0.0,VALID,24.064,VALID,64.0,VALID,0.205,
2011-10-13, 00:52:04,VALID,1010.702,VALID,0.0,VALID,104.0,VALID,0.0,VALID,24.064,VALID,64.0,VALID,0.251,
2011-10-13, 00:53:04,VALID,1010.695,VALID,0.0,VALID,104.0,VALID,0.0,VALID,24.064,VALID,64.0,VALID,0.174,
2011-10-13, 00:54:04,VALID,1010.684,VALID,0.0,VALID,104.0,VALID,0.0,VALID,24.062,VALID,64.0,VALID,0.083,
2011-10-13, 00:55:04,VALID,1010.704,VALID,0.0,VALID,104.0,VALID,0.0,VALID,24.084,VALID,64.0,VALID,0.047,
2011-10-13, 00:56:04,VALID,1010.695,VALID,0.0,VALID,104.0,VALID,0.0,VALID,24.084,VALID,64.0,VALID,0.146,
2011-10-13, 00:57:04,VALID,1010.683,VALID,0.0,VALID,104.0,VALID,0.0,VALID,24.064,VALID,64.0,VALID,0.143,
2011-10-13, 00:58:04,VALID,1010.666,VALID,0.0,VALID,104.0,VALID,0.0,VALID,24.045,VALID,64.0,VALID,0.205,
2011-10-13, 00:59:04,VALID,1010.645,VALID,0.0,VALID,104.0,VALID,0.0,VALID,24.045,VALID,64.0,VALID,0.249,
2011-10-13, 01:00:04,VALID,1010.641,VALID,0.0,VALID,104.0,VALID,0.0,VALID,24.025,VALID,64.0,VALID,0.196,
2011-10-13, 01:01:04,VALID,1010.625,VALID,0.0,VALID,104.0,VALID,0.0,VALID,24.006,VALID,64.0,VALID,0.255,
2011-10-13, 01:02:04,VALID,1010.595,VALID,0.0,VALID,104.0,VALID,0.0,VALID,24.006,VALID,64.0,VALID,0.182,
2011-10-13, 01:03:04,VALID,1010.591,VALID,0.0,VALID,104.0,VALID,0.0,VALID,23.986,VALID,64.0,VALID,0.179,
2011-10-13, 01:04:04,VALID,1010.589,VALID,0.0,VALID,104.0,VALID,0.0,VALID,23.967,VALID,64.0,VALID,0.13,
2011-10-13, 01:05:04,VALID,1010.578,VALID,0.0,VALID,104.0,VALID,0.0,VALID,23.965,VALID,64.0,VALID,0.061,
2011-10-13, 01:06:04,VALID,1010.566,VALID,0.0,VALID,104.0,VALID,0.0,VALID,23.967,VALID,64.0,VALID,0.253,
2011-10-13, 01:07:04,VALID,1010.547,VALID,0.0,VALID,104.0,VALID,0.0,VALID,23.947,VALID,64.0,VALID,0.244,
2011-10-13, 01:08:04,VALID,1010.554,VALID,0.0,VALID,104.0,VALID,0.0,VALID,23.928,VALID,64.0,VALID,0.19,
2011-10-13, 01:09:04,VALID,1010.535,VALID,0.0,VALID,104.0,VALID,0.0,VALID,23.928,VALID,64.0,VALID,0.164,
2011-10-13, 01:10:04,VALID,1010.524,VALID,0.0,VALID,104.0,VALID,0.112,VALID,23.908,VALID,64.0,VALID,0.098,
2011-10-13, 01:11:04,VALID,1010.52,VALID,0.0,VALID,104.0,VALID,0.0,VALID,23.908,VALID,64.0,VALID,0.205,
2011-10-13, 01:12:04,VALID,1010.509,VALID,0.0,VALID,104.0,VALID,0.0,VALID,23.928,VALID,64.0,VALID,0.0,
2011-10-13, 01:13:04,VALID,1010.51,VALID,0.0,VALID,104.0,VALID,0.0,VALID,23.947,VALID,64.0,VALID,0.0,
2011-10-13, 01:14:04,VALID,1010.505,VALID,0.0,VALID,104.0,VALID,0.0,VALID,23.967,VALID,64.0,VALID,0.085,
2011-10-13, 01:15:04,VALID,1010.539,VALID,0.0,VALID,104.0,VALID,0.0,VALID,24.006,VALID,64.0,VALID,0.176,
2011-10-13, 01:16:04,VALID,1010.52,VALID,0.0,VALID,104.0,VALID,0.0,VALID,24.006,VALID,64.0,VALID,0.133,
2011-10-13, 01:17:04,VALID,1010.511,VALID,0.0,VALID,104.0,VALID,0.112,VALID,24.023,VALID,64.0,VALID,0.0,
2011-10-13, 01:18:04,VALID,1010.488,VALID,0.0,VALID,104.0,VALID,0.112,VALID,24.023,VALID,64.0,VALID,0.171,
2011-10-13, 01:19:04,VALID,1010.458,VALID,0.0,VALID,104.0,VALID,0.0,VALID,24.064,VALID,64.0,VALID,0.293,
2011-10-13, 01:20:04,VALID,1010.455,VALID,0.0,VALID,104.0,VALID,0.112,VALID,24.064,VALID,64.0,VALID,0.256,
2011-10-13, 01:21:04,VALID,1010.46,VALID,0.0,VALID,104.0,VALID,0.112,VALID,24.043,VALID,64.0,VALID,0.139,
2011-10-13, 01:22:04,VALID,1010.466,VALID,0.0,VALID,104.0,VALID,0.0,VALID,24.045,VALID,64.0,VALID,0.0,
2011-10-13, 01:23:04,VALID,1010.439,VALID,0.0,VALID,104.0,VALID,0.0,VALID,24.064,VALID,64.0,VALID,0.0,
2011-10-13, 01:24:04,VALID,1010.436,VALID,0.0,VALID,104.0,VALID,0.0,VALID,24.045,VALID,64.0,VALID,0.004,
2011-10-13, 01:25:04,VALID,1010.44,VALID,0.0,VALID,104.0,VALID,0.0,VALID,24.045,VALID,64.0,VALID,0.082,
2011-10-13, 01:26:04,VALID,1010.429,VALID,0.0,VALID,104.0,VALID,0.0,VALID,24.023,VALID,64.0,VALID,0.184,
2011-10-13, 01:27:04,VALID,1010.44,VALID,0.0,VALID,104.0,VALID,0.112,VALID,24.045,VALID,64.0,VALID,0.185,
2011-10-13, 01:28:04,VALID,1010.404,VALID,0.0,VALID,104.0,VALID,0.0,VALID,24.023,VALID,64.0,VALID,0.28,
2011-10-13, 01:29:04,VALID,1010.405,VALID,0.0,VALID,104.0,VALID,0.0,VALID,24.045,VALID,64.0,VALID,0.339,
2011-10-13, 01:30:04,VALID,1010.386,VALID,0.0,VALID,104.0,VALID,0.0,VALID,24.025,VALID,64.0,VALID,0.323,
2011-10-13, 01:31:04,VALID,1010.38,VALID,0.0,VALID,104.0,VALID,0.0,VALID,24.025,VALID,64.0,VALID,0.241,
2011-10-13, 01:32:04,VALID,1010.345,VALID,0.0,VALID,104.0,VALID,0.0,VALID,24.006,VALID,64.0,VALID,0.353,
2011-10-13, 01:33:04,VALID,1010.322,VALID,0.0,VALID,104.0,VALID,0.112,VALID,23.984,VALID,64.0,VALID,0.339,
2011-10-13, 01:34:04,VALID,1010.301,VALID,0.0,VALID,104.0,VALID,0.0,VALID,23.986,VALID,64.0,VALID,0.209,
2011-10-13, 01:35:04,VALID,1010.293,VALID,0.0,VALID,104.0,VALID,0.0,VALID,23.986,VALID,64.0,VALID,0.259,
2011-10-13, 01:36:04,VALID,1010.268,VALID,0.0,VALID,104.0,VALID,0.112,VALID,23.986,VALID,64.0,VALID,0.242,
2011-10-13, 01:37:04,VALID,1010.273,VALID,0.0,VALID,104.0,VALID,0.112,VALID,23.967,VALID,64.0,VALID,0.134,
2011-10-13, 01:38:04,VALID,1010.259,VALID,0.0,VALID,104.0,VALID,0.0,VALID,23.947,VALID,64.0,VALID,0.106,
2011-10-13, 01:39:04,VALID,1010.258,VALID,0.0,VALID,104.0,VALID,0.0,VALID,23.907,VALID,64.0,VALID,0.0,
2011-10-13, 01:40:04,VALID,1010.223,VALID,0.0,VALID,104.0,VALID,0.0,VALID,23.908,VALID,64.0,VALID,0.0,
2011-10-13, 01:41:04,VALID,1010.179,VALID,0.0,VALID,104.0,VALID,0.0,VALID,23.889,VALID,64.0,VALID,0.0,
2011-10-13, 01:42:04,VALID,1010.198,VALID,0.0,VALID,104.0,VALID,0.0,VALID,23.908,VALID,64.0,VALID,0.0,
2011-10-13, 01:43:04,VALID,1010.191,VALID,0.0,VALID,104.0,VALID,0.0,VALID,23.908,VALID,64.0,VALID,0.0,
2011-10-13, 01:44:04,VALID,1010.178,VALID,0.0,VALID,104.0,VALID,0.0,VALID,23.887,VALID,64.0,VALID,0.0,
2011-10-13, 01:45:04,VALID,1010.162,VALID,0.0,VALID,104.0,VALID,0.112,VALID,23.869,VALID,64.0,VALID,0.046,
2011-10-13, 01:46:04,VALID,1010.192,VALID,0.0,VALID,104.0,VALID,0.0,VALID,23.83,VALID,64.0,VALID,0.0,
2011-10-13, 01:47:04,VALID,1010.187,VALID,0.0,VALID,104.0,VALID,0.0,VALID,23.809,VALID,64.0,VALID,0.0,
2011-10-13, 01:48:04,VALID,1010.206,VALID,0.0,VALID,104.0,VALID,0.0,VALID,23.85,VALID,64.0,VALID,0.0,
2011-10-13, 01:49:04,VALID,1010.211,VALID,0.0,VALID,104.0,VALID,0.112,VALID,23.85,VALID,64.0,VALID,0.0,
2011-10-13, 01:50:04,VALID,1010.222,VALID,0.0,VALID,104.0,VALID,0.0,VALID,23.85,VALID,64.0,VALID,0.0,
2011-10-13, 01:51:04,VALID,1010.203,VALID,0.0,VALID,104.0,VALID,0.0,VALID,23.811,VALID,64.0,VALID,0.0,
2011-10-13, 01:52:04,VALID,1010.21,VALID,0.0,VALID,104.0,VALID,0.0,VALID,23.811,VALID,64.0,VALID,0.0,
2011-10-13, 01:53:04,VALID,1010.19,VALID,0.0,VALID,104.0,VALID,0.0,VALID,23.791,VALID,64.0,VALID,0.0,
2011-10-13, 01:54:04,VALID,1010.143,VALID,0.0,VALID,104.0,VALID,0.0,VALID,23.791,VALID,64.0,VALID,0.0,
2011-10-13, 01:55:04,VALID,1010.15,VALID,0.0,VALID,104.0,VALID,0.0,VALID,23.79,VALID,64.0,VALID,0.0,
2011-10-13, 01:56:04,VALID,1010.144,VALID,0.0,VALID,104.0,VALID,0.0,VALID,23.77,VALID,64.0,VALID,0.0,
2011-10-13, 01:57:04,VALID,1010.093,VALID,0.0,VALID,104.0,VALID,0.0,VALID,23.791,VALID,64.0,VALID,0.0,
2011-10-13, 01:58:04,VALID,1010.072,VALID,0.0,VALID,104.0,VALID,0.0,VALID,23.79,VALID,64.0,VALID,0.0,
2011-10-13, 01:59:04,VALID,1010.053,VALID,0.0,VALID,104.0,VALID,0.0,VALID,23.811,VALID,64.0,VALID,0.0,
2011-10-13, 02:00:04,VALID,1010.024,VALID,0.0,VALID,104.0,VALID,0.0,VALID,23.811,VALID,64.0,VALID,0.182,
2011-10-13, 02:01:04,VALID,1010.01,VALID,0.0,VALID,104.0,VALID,0.0,VALID,23.811,VALID,64.0,VALID,0.379,
2011-10-13, 02:02:04,VALID,1010.017,VALID,0.0,VALID,104.0,VALID,0.0,VALID,23.809,VALID,64.0,VALID,0.298,
2011-10-13, 02:03:04,VALID,1010.009,VALID,0.0,VALID,104.0,VALID,0.0,VALID,23.811,VALID,64.0,VALID,0.29,
2011-10-13, 02:04:04,VALID,1009.999,VALID,0.0,VALID,104.0,VALID,0.112,VALID,23.809,VALID,64.0,VALID,0.14,
2011-10-13, 02:05:04,VALID,1010.012,VALID,0.0,VALID,104.0,VALID,0.112,VALID,23.83,VALID,64.0,VALID,0.128,
2011-10-13, 02:06:04,VALID,1009.972,VALID,0.0,VALID,104.0,VALID,0.0,VALID,23.811,VALID,64.0,VALID,0.359,
2011-10-13, 02:07:04,VALID,1010.021,VALID,0.0,VALID,104.0,VALID,0.0,VALID,23.791,VALID,64.0,VALID,0.451,
2011-10-13, 02:08:04,VALID,1009.996,VALID,0.0,VALID,104.0,VALID,0.0,VALID,23.772,VALID,64.0,VALID,0.526,
2011-10-13, 02:09:04,VALID,1009.988,VALID,0.0,VALID,104.0,VALID,0.0,VALID,23.772,VALID,64.0,VALID,0.366,
2011-10-13, 02:10:04,VALID,1010.006,VALID,0.0,VALID,104.0,VALID,0.0,VALID,23.772,VALID,64.0,VALID,0.245,
2011-10-13, 02:11:04,VALID,1009.982,VALID,0.0,VALID,104.0,VALID,0.0,VALID,23.774,VALID,64.0,VALID,0.301,
2011-10-13, 02:12:04,VALID,1010.013,VALID,0.0,VALID,104.0,VALID,0.0,VALID,23.772,VALID,64.0,VALID,0.251,
2011-10-13, 02:13:04,VALID,1010.017,VALID,0.0,VALID,104.0,VALID,0.0,VALID,23.752,VALID,64.0,VALID,0.297,
2011-10-13, 02:14:04,VALID,1010.0,VALID,0.0,VALID,104.0,VALID,0.0,VALID,23.752,VALID,64.0,VALID,0.341,
2011-10-13, 02:15:04,VALID,1010.019,VALID,0.0,VALID,104.0,VALID,0.112,VALID,23.772,VALID,64.0,VALID,0.412,
2011-10-13, 02:16:04,VALID,1010.011,VALID,0.0,VALID,104.0,VALID,0.0,VALID,23.752,VALID,64.0,VALID,0.406,
2011-10-13, 02:17:04,VALID,1010.005,VALID,0.0,VALID,104.0,VALID,0.0,VALID,23.752,VALID,64.0,VALID,0.431,
2011-10-13, 02:18:04,VALID,1009.999,VALID,0.0,VALID,104.0,VALID,0.0,VALID,23.752,VALID,64.0,VALID,0.453,
2011-10-13, 02:19:04,VALID,1009.99,VALID,0.0,VALID,104.0,VALID,0.0,VALID,23.731,VALID,64.0,VALID,0.23,
2011-10-13, 02:20:04,VALID,1010.006,VALID,0.0,VALID,104.0,VALID,0.0,VALID,23.752,VALID,64.0,VALID,0.0,
2011-10-13, 02:21:04,VALID,1010.012,VALID,0.0,VALID,104.0,VALID,0.0,VALID,23.733,VALID,64.0,VALID,0.0,
2011-10-13, 02:22:04,VALID,1009.987,VALID,0.0,VALID,104.0,VALID,0.0,VALID,23.733,VALID,64.0,VALID,0.0,
2011-10-13, 02:23:04,VALID,1010.006,VALID,0.0,VALID,104.0,VALID,0.0,VALID,23.735,VALID,64.0,VALID,0.0,
2011-10-13, 02:24:04,VALID,1010.014,VALID,0.0,VALID,104.0,VALID,0.0,VALID,23.713,VALID,64.0,VALID,0.0,
2011-10-13, 02:25:04,VALID,1010.003,VALID,0.0,VALID,104.0,VALID,0.0,VALID,23.733,VALID,64.0,VALID,0.0,
2011-10-13, 02:26:04,VALID,1010.001,VALID,0.0,VALID,104.0,VALID,0.0,VALID,23.733,VALID,64.0,VALID,0.383,
2011-10-13, 02:27:04,VALID,1010.012,VALID,0.0,VALID,104.0,VALID,0.0,VALID,23.733,VALID,64.0,VALID,0.104,
2011-10-13, 02:28:04,VALID,1009.994,VALID,0.0,VALID,104.0,VALID,0.0,VALID,23.752,VALID,64.0,VALID,0.228,
2011-10-13, 02:29:04,VALID,1009.957,VALID,0.0,VALID,104.0,VALID,0.0,VALID,23.733,VALID,64.0,VALID,0.262,
2011-10-13, 02:30:04,VALID,1009.949,VALID,0.0,VALID,104.0,VALID,0.0,VALID,23.733,VALID,64.0,VALID,0.208,
2011-10-13, 02:31:04,VALID,1009.965,VALID,0.0,VALID,104.0,VALID,0.0,VALID,23.733,VALID,64.0,VALID,0.181,
2011-10-13, 02:32:04,VALID,1009.938,VALID,0.0,VALID,104.0,VALID,0.0,VALID,23.733,VALID,64.0,VALID,0.187,
2011-10-13, 02:33:04,VALID,1009.933,VALID,0.0,VALID,104.0,VALID,0.0,VALID,23.733,VALID,64.0,VALID,0.12,
2011-10-13, 02:34:04,VALID,1009.907,VALID,0.0,VALID,104.0,VALID,0.0,VALID,23.733,VALID,64.0,VALID,0.083,
2011-10-13, 02:35:04,VALID,1009.88,VALID,0.0,VALID,104.0,VALID,0.0,VALID,23.713,VALID,64.0,VALID,0.0,
2011-10-13, 02:36:04,VALID,1009.893,VALID,0.0,VALID,104.0,VALID,0.112,VALID,23.713,VALID,64.0,VALID,0.0,
2011-10-13, 02:37:04,VALID,1009.879,VALID,0.0,VALID,104.0,VALID,0.0,VALID,23.692,VALID,64.0,VALID,0.0,
2011-10-13, 02:38:04,VALID,1009.872,VALID,0.0,VALID,104.0,VALID,0.0,VALID,23.713,VALID,64.0,VALID,0.0,
2011-10-13, 02:39:04,VALID,1009.879,VALID,0.0,VALID,104.0,VALID,0.0,VALID,23.694,VALID,64.0,VALID,0.0,
2011-10-13, 02:40:04,VALID,1009.866,VALID,0.0,VALID,104.0,VALID,0.0,VALID,23.694,VALID,64.0,VALID,0.0,
2011-10-13, 02:41:04,VALID,1009.858,VALID,0.0,VALID,104.0,VALID,0.0,VALID,23.673,VALID,64.0,VALID,0.166,
2011-10-13, 02:42:04,VALID,1009.883,VALID,0.0,VALID,104.0,VALID,0.0,VALID,23.694,VALID,64.0,VALID,0.233,
2011-10-13, 02:43:04,VALID,1009.855,VALID,0.0,VALID,104.0,VALID,0.0,VALID,23.694,VALID,64.0,VALID,0.213,
2011-10-13, 02:44:04,VALID,1009.818,VALID,0.0,VALID,104.0,VALID,0.0,VALID,23.694,VALID,64.0,VALID,0.31,
2011-10-13, 02:45:04,VALID,1009.809,VALID,0.0,VALID,104.0,VALID,0.0,VALID,23.675,VALID,64.0,VALID,0.202,
2011-10-13, 02:46:04,VALID,1009.807,VALID,0.0,VALID,104.0,VALID,0.0,VALID,23.694,VALID,64.0,VALID,0.356,
2011-10-13, 02:47:04,VALID,1009.78,VALID,0.0,VALID,104.0,VALID,0.0,VALID,23.675,VALID,64.0,VALID,0.204,
2011-10-13, 02:48:04,VALID,1009.789,VALID,0.0,VALID,104.0,VALID,0.0,VALID,23.675,VALID,64.0,VALID,0.152,
2011-10-13, 02:49:04,VALID,1009.787,VALID,0.0,VALID,104.0,VALID,0.0,VALID,23.675,VALID,64.0,VALID,0.0,
2011-10-13, 02:50:04,VALID,1009.802,VALID,0.0,VALID,104.0,VALID,0.0,VALID,23.655,VALID,64.0,VALID,0.0,
2011-10-13, 02:51:04,VALID,1009.795,VALID,0.0,VALID,104.0,VALID,0.0,VALID,23.636,VALID,64.0,VALID,0.0,
2011-10-13, 02:52:04,VALID,1009.787,VALID,0.0,VALID,104.0,VALID,0.0,VALID,23.616,VALID,64.0,VALID,0.0,
2011-10-13, 02:53:04,VALID,1009.803,VALID,0.0,VALID,104.0,VALID,0.0,VALID,23.597,VALID,64.0,VALID,0.0,
2011-10-13, 02:54:04,VALID,1009.802,VALID,0.0,VALID,104.0,VALID,0.0,VALID,23.597,VALID,64.0,VALID,0.025,
2011-10-13, 02:55:04,VALID,1009.812,VALID,0.0,VALID,104.0,VALID,0.112,VALID,23.597,VALID,64.0,VALID,0.253,
2011-10-13, 02:56:04,VALID,1009.813,VALID,0.0,VALID,104.0,VALID,0.112,VALID,23.597,VALID,64.0,VALID,0.171,
2011-10-13, 02:57:04,VALID,1009.794,VALID,0.0,VALID,104.0,VALID,0.0,VALID,23.577,VALID,64.0,VALID,0.004,
2011-10-13, 02:58:04,VALID,1009.796,VALID,0.0,VALID,104.0,VALID,0.0,VALID,23.577,VALID,64.0,VALID,0.114,
2011-10-13, 02:59:04,VALID,1009.77,VALID,0.0,VALID,104.0,VALID,0.0,VALID,23.577,VALID,64.0,VALID,0.033,
2011-10-13, 03:00:04,VALID,1009.749,VALID,0.0,VALID,104.0,VALID,0.112,VALID,23.536,VALID,64.0,VALID,0.0,
2011-10-13, 03:01:04,VALID,1009.758,VALID,0.0,VALID,104.0,VALID,0.112,VALID,23.577,VALID,64.0,VALID,0.0,
2011-10-13, 03:02:04,VALID,1009.738,VALID,0.0,VALID,104.0,VALID,0.0,VALID,23.577,VALID,64.0,VALID,0.0,
2011-10-13, 03:03:04,VALID,1009.751,VALID,0.0,VALID,104.0,VALID,0.112,VALID,23.558,VALID,64.0,VALID,0.0,
2011-10-13, 03:04:04,VALID,1009.741,VALID,0.0,VALID,104.0,VALID,0.0,VALID,23.558,VALID,64.0,VALID,0.0,
2011-10-13, 03:05:04,VALID,1009.765,VALID,0.0,VALID,104.0,VALID,0.0,VALID,23.559,VALID,64.0,VALID,0.031,
2011-10-13, 03:06:04,VALID,1009.713,VALID,0.0,VALID,104.0,VALID,0.0,VALID,23.558,VALID,64.0,VALID,0.0,
2011-10-13, 03:07:04,VALID,1009.72,VALID,0.0,VALID,104.0,VALID,0.112,VALID,23.538,VALID,64.0,VALID,0.0,
2011-10-13, 03:08:04,VALID,1009.739,VALID,0.0,VALID,104.0,VALID,0.0,VALID,23.538,VALID,64.0,VALID,0.0,
2011-10-13, 03:09:04,VALID,1009.729,VALID,0.0,VALID,104.0,VALID,0.0,VALID,23.538,VALID,64.0,VALID,0.0,
2011-10-13, 03:10:04,VALID,1009.733,VALID,0.0,VALID,104.0,VALID,0.0,VALID,23.558,VALID,64.0,VALID,0.0,
2011-10-13, 03:11:04,VALID,1009.734,VALID,0.0,VALID,104.0,VALID,0.0,VALID,23.577,VALID,64.0,VALID,0.0,
2011-10-13, 03:12:04,VALID,1009.719,VALID,0.0,VALID,104.0,VALID,0.0,VALID,23.577,VALID,64.0,VALID,0.0,
2011-10-13, 03:13:04,VALID,1009.677,VALID,0.0,VALID,104.0,VALID,0.0,VALID,23.597,VALID,64.0,VALID,0.0,
2011-10-13, 03:14:04,VALID,1009.693,VALID,0.0,VALID,104.0,VALID,0.0,VALID,23.597,VALID,64.0,VALID,0.0,
2011-10-13, 03:15:04,VALID,1009.697,VALID,0.0,VALID,104.0,VALID,0.0,VALID,23.577,VALID,64.0,VALID,0.0,
2011-10-13, 03:16:04,VALID,1009.703,VALID,0.0,VALID,104.0,VALID,0.0,VALID,23.558,VALID,64.0,VALID,0.0,
2011-10-13, 03:17:04,VALID,1009.708,VALID,0.0,VALID,104.0,VALID,0.0,VALID,23.577,VALID,64.0,VALID,0.0,
2011-10-13, 03:18:04,VALID,1009.72,VALID,0.0,VALID,104.0,VALID,0.0,VALID,23.558,VALID,64.0,VALID,0.0,
2011-10-13, 03:19:04,VALID,1009.721,VALID,0.0,VALID,104.0,VALID,0.0,VALID,23.577,VALID,64.0,VALID,0.0,
2011-10-13, 03:20:04,VALID,1009.703,VALID,0.0,VALID,104.0,VALID,0.0,VALID,23.618,VALID,64.0,VALID,0.0,
2011-10-13, 03:21:04,VALID,1009.701,VALID,0.0,VALID,104.0,VALID,0.0,VALID,23.597,VALID,64.0,VALID,0.065,
2011-10-13, 03:22:04,VALID,1009.674,VALID,0.0,VALID,104.0,VALID,0.0,VALID,23.597,VALID,64.0,VALID,0.0,
2011-10-13, 03:23:04,VALID,1009.679,VALID,0.0,VALID,104.0,VALID,0.0,VALID,23.616,VALID,64.0,VALID,0.0,
2011-10-13, 03:24:04,VALID,1009.676,VALID,0.0,VALID,104.0,VALID,0.0,VALID,23.618,VALID,64.0,VALID,0.0,
2011-10-13, 03:25:04,VALID,1009.651,VALID,0.0,VALID,104.0,VALID,0.0,VALID,23.597,VALID,64.0,VALID,0.0,
2011-10-13, 03:26:04,VALID,1009.651,VALID,0.0,VALID,104.0,VALID,0.0,VALID,23.618,VALID,64.0,VALID,0.0,
2011-10-13, 03:27:04,VALID,1009.632,VALID,0.0,VALID,104.0,VALID,0.0,VALID,23.597,VALID,64.0,VALID,0.0,
2011-10-13, 03:28:04,VALID,1009.613,VALID,0.0,VALID,104.0,VALID,0.0,VALID,23.597,VALID,64.0,VALID,0.0,
2011-10-13, 03:29:04,VALID,1009.634,VALID,0.0,VALID,104.0,VALID,0.0,VALID,23.597,VALID,64.0,VALID,0.157,
2011-10-13, 03:30:04,VALID,1009.6,VALID,0.0,VALID,104.0,VALID,0.0,VALID,23.616,VALID,64.0,VALID,0.035,
2011-10-13, 03:31:04,VALID,1009.618,VALID,0.0,VALID,104.0,VALID,0.0,VALID,23.637,VALID,64.0,VALID,0.0,
2011-10-13, 03:32:04,VALID,1009.587,VALID,0.0,VALID,104.0,VALID,0.0,VALID,23.616,VALID,64.0,VALID,0.0,
2011-10-13, 03:33:04,VALID,1009.551,VALID,0.0,VALID,104.0,VALID,0.0,VALID,23.636,VALID,63.0,VALID,0.0,
2011-10-13, 03:34:04,VALID,1009.524,VALID,0.0,VALID,104.0,VALID,0.0,VALID,23.676,VALID,64.0,VALID,0.313,
2011-10-13, 03:35:04,VALID,1009.514,VALID,0.0,VALID,104.0,VALID,0.0,VALID,23.675,VALID,64.0,VALID,0.152,
2011-10-13, 03:36:04,VALID,1009.537,VALID,0.0,VALID,104.0,VALID,0.0,VALID,23.675,VALID,64.0,VALID,0.023,
2011-10-13, 03:37:04,VALID,1009.532,VALID,0.0,VALID,104.0,VALID,0.0,VALID,23.676,VALID,64.0,VALID,0.134,
2011-10-13, 03:38:04,VALID,1009.537,VALID,0.0,VALID,104.0,VALID,0.0,VALID,23.655,VALID,64.0,VALID,0.0,
2011-10-13, 03:39:04,VALID,1009.546,VALID,0.0,VALID,104.0,VALID,0.0,VALID,23.655,VALID,64.0,VALID,0.0,
2011-10-13, 03:40:04,VALID,1009.563,VALID,0.0,VALID,104.0,VALID,0.0,VALID,23.676,VALID,64.0,VALID,0.004,
2011-10-13, 03:41:04,VALID,1009.551,VALID,0.0,VALID,104.0,VALID,0.0,VALID,23.655,VALID,64.0,VALID,0.195,
2011-10-13, 03:42:04,VALID,1009.551,VALID,0.0,VALID,104.0,VALID,0.0,VALID,23.655,VALID,64.0,VALID,0.261,
2011-10-13, 03:43:04,VALID,1009.537,VALID,0.0,VALID,104.0,VALID,0.0,VALID,23.636,VALID,64.0,VALID,0.255,
2011-10-13, 03:44:04,VALID,1009.543,VALID,0.0,VALID,104.0,VALID,0.0,VALID,23.657,VALID,64.0,VALID,0.011,
2011-10-13, 03:45:04,VALID,1009.544,VALID,0.0,VALID,104.0,VALID,0.0,VALID,23.577,VALID,64.0,VALID,0.446,